Regional Weather Roundup
Issued by NWS

Home | Current Version | Previous Version | Graphics & Text | Print | Product List | Glossary On
Versions: 1 2 3 4 5 6 7 8 9 10 11 12 13 14 15 16 17 18 19 20 21 22 23 24 25 26 27 28
000
ASUS45 KPSR 201710
RWRAZ

ARIZONA HOURLY REGIONAL WEATHER ROUNDUP
NATIONAL WEATHER SERVICE PHOENIX AZ
1000 AM MST FRI OCT 20 2017

NOTE: FAIR INDICATES FEW OR NO CLOUDS BELOW 12,000 FEET WITH NO
SIGNIFICANT WEATHER AND/OR OBSTRUCTIONS TO VISIBILITY.

AZZ001>003-036-201800-
NORTHWEST ARIZONA

CITY           SKY/WX    TMP DP  RH WIND       PRES   REMARKS
BULLHEAD CITY  SUNNY     77  39  25 SW8       29.74F
KINGMAN        SUNNY     72  37  28 SW20G26   29.88R
$$

AZZ004>008-015-016-018-201800-
NORTH CENTRAL ARIZONA

CITY           SKY/WX    TMP DP  RH WIND       PRES   REMARKS
GRAND CANYON   SUNNY     61  29  29 SW24G35   29.98R
WILLIAMS       SUNNY     61  28  29 SW21G32   30.00S
PRESCOTT       SUNNY     68  30  24 S14G23    29.97R
FLAGSTAFF      SUNNY     58  31  35 SW23G37   30.02S
PAYSON           N/A     66  32  28 S9G16     30.00F
PAGE           SUNNY     71  34  25 W5        29.77F
$$

AZZ009>014-017-201800-
NORTHEAST ARIZONA

CITY           SKY/WX    TMP DP  RH WIND       PRES   REMARKS
WINSLOW        SUNNY     73  34  23 S18       29.91F
SAINT JOHNS    SUNNY     70  33  25 SW10G22   29.99F
WINDOW ROCK    SUNNY     64  31  28 SW18G32   30.01F
SHOW LOW       SUNNY     64  32  29 S24G31    30.06F
$$

AZZ540-542>544-546-548-201800-
GREATER PHOENIX AREA

CITY           SKY/WX    TMP DP  RH WIND       PRES   REMARKS
PHOENIX        MOSUNNY   79  42  26 SE10      29.81S
BUCKEYE        SUNNY     77  66  69 S10       29.82F
GLENDALE       MOSUNNY   81  41  24 S6        29.83F
LUKE AFB       SUNNY     79  42  26 S9        29.80F
DEER VALLEY    SUNNY     77  39  25 S8        29.82F
SCOTTSDALE     SUNNY     78  37  22 SE6       29.84F
MESA-FALCON    SUNNY     81  39  22 SE9       29.84F
MESA-GATEWAY   MOSUNNY   79  39  24 SE9       29.85F
CHANDLER       SUNNY     81  36  19 SE10      29.82F
$$

AZZ539-553-201800-
SOUTHWEST MARICOPA COUNTY AND PINAL COUNTY

CITY           SKY/WX    TMP DP  RH WIND       PRES   REMARKS
CASA GRANDE    NOT AVBL
GILA BEND      MOSUNNY   81  46  30 W10       29.83S
$$

AZZ503-504-507>509-201800-
SOUTHEAST ARIZONA

CITY           SKY/WX    TMP DP  RH WIND       PRES   REMARKS
TUCSON         SUNNY     81  36  19 CALM      29.94S
DAVIS-MONTHAN  SUNNY     80  37  21 CALM      29.92S
RYAN FIELD     SUNNY     81  37  21 CALM      29.92F
NOGALES        SUNNY     79  40  24 SW10      30.00S
SIERRA VISTA   SUNNY     77  38  24 S9G22     30.05R
DOUGLAS        SUNNY     77  38  24 S13       30.02S
SAFFORD        SUNNY     76  41  28 VRB7      29.94F
$$

AZZ532-201800-
SOUTHWEST ARIZONA

CITY           SKY/WX    TMP DP  RH WIND       PRES   REMARKS
YUMA           MOSUNNY   77  54  44 NW20      29.83R
$$

CAZ041-043-047-048-061-525>527-560>570-201800-
SOUTHERN CALIFORNIA

CITY           SKY/WX    TMP DP  RH WIND       PRES   REMARKS
DOWNTOWN L.A.  PTSUNNY   70  59  68 VRB3      29.92S
L.A. AIRPORT   MOSUNNY   68  57  68 W10       29.93S
SAN DIEGO      PTSUNNY   69  58  67 W17       30.01R
BURBANK        PTSUNNY   65  55  70 VRB3      29.94R
ONTARIO        CLOUDY    63  55  75 SW9       29.95S
RIVERSIDE      PTSUNNY   66  56  70 W5        29.94F
PALM SPRINGS   MOSUNNY   79  49  34 N8G28     29.81S
EL CENTRO NAS  MOSUNNY   79  50  36 W31       29.84F
IMPERIAL       MOSUNNY   77  53  43 W20G30    29.82S
BLYTHE         SUNNY     76  52  43 E6        29.78F
NEEDLES        SUNNY     83  42  23 SW9       29.77S
$$

NVZ020-UTZ003-201800-
SOUTHERN NEVADA-UTAH

CITY           SKY/WX    TMP DP  RH WIND       PRES   REMARKS
LAS VEGAS      MOSUNNY   70  40  33 S21G36    29.67F
SALT LAKE CITY PTSUNNY   70  30  22 S21G31    29.62R
$$

NMZ009-TXZ055-201800-
NEW MEXICO-WEST TEXAS

CITY           SKY/WX    TMP DP  RH WIND       PRES   REMARKS
ALBUQUERQUE    MOSUNNY   59  49  69 SW7       30.04S
EL PASO        MOSUNNY   68  52  56 S5        30.02F
$$


........................KEY........................
SKY/WX - SKY CONDITION/WEATHER
TMP    - TEMPERATURE IN FAHRENHEIT
DP     - DEW POINT IN FAHRENHEIT
RH     - RELATIVE HUMIDITY IN PERCENT
WIND   - DIRECTION AND SPEED IN MILES PER HOUR (MPH)
VRB    - VARIABLE WIND DIRECTION
PRES   - MEAN SEA LEVEL PRESSURE IN INCHES OF MERCURY
         F - FALLING PRESSURE   R - RISING PRESSURE
         S - STEADY PRESSURE
VSB    - VISIBILITY IN MILES
HX     - HEAT INDEX IN FAHRENHEIT
WCI    - WIND CHILL INDEX IN FAHRENHEIT
TC     - TEMPERATURE IN CELSIUS WHICH IS ALSO KNOWN AS
         TEMPERATURE IN CENTIGRADE
AFB    - AIR FORCE BASE
         LUKE AFB IS LUKE AIR FORCE BASE
         DAVIS-MONTHAN IS DAVIS-MONTHAN AIR FORCE BASE
NAS    - NAVAL AIR STATION
         EL CENTRO NAS IS EL CENTRO NAVAL AIR STATION
N/A    - NOT AVAILABLE





USA.gov is the U.S. government's official web portal to all federal, state and local government web resources and services.